User: anonymous   Login
Location: Vancouver
(49.2500°N, 123.1330°W)
Time: 12:48:30
(UTC-07:00)
Language:

Iridium 21 - Orbit

View from above orbital plane
View from above orbital plane
View from above satellite
View from above satellite

Ground track
Ground track

The orbit data is extracted from the following two-line orbital elements,

1 25778U 99032B   15115.20940877  .00000628  00000-0  21721-3 0  9994
2 25778 086.4013 191.6613 0002335 098.6620 312.5423 14.34226905835747
Epoch (UTC): 25 April 2015 05:01:32
Eccentricity: 0.0002335
inclination: 86.4013°
perigee height: 776 km
apogee height: 779 km
right ascension of ascending node: 191.6613°
argument of perigee: 98.6620°
revolutions per day: 14.34226905
mean anomaly at epoch: 312.5423°
orbit number at epoch: 83574

The dashed part of the orbit path shows where the satellite is in the earth's shadow,  

DLR